Location: Puketoi
(40.5833°S, 176.0167°E)
Time: 15:25:05
(UTC+00:00)

Cosmos 1190 Rocket - Pass Details

Date: 08 February 2023
Orbit: 756 x 778 km, 74.1° (Epoch: 22 March)

Event Time Altitude Azimuth Distance (km) Brightness Sun altitude
Rises 16:57:40 0° 348° (NNW) 3,205 6.8 -6.9°
Reaches altitude 10° 17:00:01 10° 349° (N) 2,289 6.1 -6.5°
Maximum altitude 17:05:12 74° 73° (ENE) 802 4.3 -5.6°
Drops below altitude 10° 17:10:28 10° 157° (SSE) 2,329 7.3 -4.7°
Sets 17:12:53 0° 158° (SSE) 3,266 8.0 -4.3°
